STARLINK-2241, 48586

Orbit data source: Space-Track

STARLINK-2241, 48586 is a payload satellite owned by SpaceX/Seattle (US) in LEO that was launched on Sat, 15 May 2021 UTC via an FALCON 9 launch vehicle from the Air Force Eastern Test Range (AFETR). Payload-class satellites include a variety of spacecraft equipped with specific instruments for various scientific and technological missions. These include communications satellites like Starlink; space stations such as the ISS; scientific satellites like the Hubble; Earth observation satellites from companies like Planet Labs, Umbra, and HawkEye 360; GPS; miniature CubeSats for education and research; and military/defense satellites.

Loading next visibility...
Identifier
48586, 2021-041AK
Orbit
LEO
Country
Flag of USUS
Related business
Manufacturer
SpaceX/Seattle
Mission
Operational Commercial Communications
Bus & Motor
STARLINK, Unknown motor
Mass
260 kg wet, ~248 kg dry
Launch date (UTC)
2021-05-15 (5 years ago)
Launch vehicle
FALCON 9
Launch site
Air Force Eastern Test Range (AFETR)
Object type
Payload
Rocket body
Debris
Shape & HBR
Box + 1 Pan, 10.1 m
Radar Cross Section
13.562 m², Large (>1 m²)

Expand to show TLE details & history
Last TLE update: 18 hours ago

TLE from 18 hours ago
0 STARLINK-2241
1 48586U 21041AK  25348.88272367  .00002208  00000-0  16698-3 0  9999
2 48586  53.0536 162.3288 0001253  88.2389 271.8743 15.06414247252278
Epoch: 2025-12-14T21:11Z
TLE epoch observation values (Epoch: 2025-12-14T21:11:07.325Z)
Latitude
-0.00004°
Longitude
120.75899°
Altitude
548.019 km
Speed
7.589 km/s
True Right ascension
10h 49m 18s
True Declination
0° 00' 00"
Sunlit
Object was in daylight at epoch
Visualization orbit readout
Latitude
Unknown
Longitude
Unknown
Altitude
Unknown
Speed
Unknown
Apparent Right ascension
Unknown
Apparent Declination
Unknown
Sunlit
N/A
Visualization observer readout
Local Sidereal Time
13:22:50
Azimuth
Unknown
Elevation
Unknown
Doppler factor
Unknown
Orbital elements
Apogee altitude
548.307 km
Perigee altitude
546.571 km
Semi-major axis
6,925.576 km
Eccentricity
0.00013
Inclination
53.0536°
RAAN
162.3288°
Arg. of periapsis
88.2389°
True anomaly
271.85995°
Mean anomaly
271.8743°
Eccentric anomaly
271.86712°
Mean motion
3.76582 °/min
Orbital period
95.6 mins
BSTAR
0.00016698
Loading maneuver chart data...
Computing Atmospheric mass density...
Loading historical data...
Loading historical data...
Loading historical data...
Loading historical data...
Loading historical data...
Loading historical data...
Loading historical data...

Documentation

Showing up to 5 results
|